| time (UTC) | temp F | wind direction | speed MPH | gust MPH | rain 1hr in | rain 24hr in | rain mn in | humidity % | barometer mb |
| 20260510153034 | 84 | 90 | 2.0 | 5.0 | 0.00 | 0.00 | 0.00 | 48 | 1008.8 |
| 20260510152533 | 83 | 121 | 2.0 | 5.0 | 0.00 | 0.00 | 0.00 | 48 | 1008.8 |
| 20260510152032 | 83 | 44 | 0.0 | 5.0 | 0.00 | 0.00 | 0.00 | 49 | 1008.9 |
| 20260510151532 | 83 | 72 | 2.0 | 5.0 | 0.00 | 0.00 | 0.00 | 50 | 1008.9 |
| 20260510151031 | 83 | 109 | 2.0 | 4.0 | 0.00 | 0.00 | 0.00 | 50 | 1008.8 |
| 20260510150530 | 82 | 306 | 0.0 | 3.0 | 0.00 | 0.00 | 0.00 | 52 | 1008.8 |
| 20260510150030 | 82 | 359 | 1.0 | 4.0 | 0.00 | 0.00 | 0.00 | 52 | 1008.8 |
| 20260510145527 | 81 | 6 | 1.0 | 4.0 | 0.00 | 0.00 | 0.00 | 54 | 1008.8 |
| 20260510145026 | 80 | 2.0 | 0.0 | 0.00 | 0.00 | 0.00 | 56 | 1008.8 | |
| 20260510143559 | 80 | 46 | 1.0 | 4.0 | 0.00 | 0.00 | 0.00 | 56 | 1008.7 |
| 20260510143059 | 79 | 76 | 1.0 | 4.0 | 0.00 | 0.00 | 0.00 | 57 | 1008.8 |
| 20260510142558 | 78 | 335 | 2.0 | 4.0 | 0.00 | 0.00 | 0.00 | 58 | 1008.7 |
| 20260510142058 | 78 | 277 | 1.0 | 3.0 | 0.00 | 0.00 | 0.00 | 58 | 1008.7 |
| 20260510141558 | 77 | 344 | 0.0 | 3.0 | 0.00 | 0.00 | 0.00 | 59 | 1008.8 |
| 20260510141101 | 77 | 9 | 1.0 | 3.0 | 0.00 | 0.00 | 0.00 | 60 | 1008.9 |
| 20260510140601 | 76 | 309 | 0.0 | 3.0 | 0.00 | 0.00 | 0.00 | 61 | 1008.8 |
| 20260510140058 | 75 | 309 | 0.0 | 3.0 | 0.00 | 0.00 | 0.00 | 62 | 1008.8 |
| 20260510135558 | 74 | 300 | 0.0 | 4.0 | 0.00 | 0.00 | 0.00 | 63 | 1008.8 |
| 20260510135057 | 74 | 300 | 1.0 | 5.0 | 0.00 | 0.00 | 0.00 | 64 | 1008.7 |
| 20260510134658 | 73 | 274 | 4.0 | 7.0 | 0.00 | 0.00 | 0.00 | 65 | 1008.7 |
| 20260510133515 | 73 | 279 | 4.0 | 8.0 | 0.00 | 0.00 | 0.00 | 65 | 1008.6 |
| 20260510133017 | 72 | 276 | 5.0 | 8.0 | 0.00 | 0.00 | 0.00 | 65 | 1008.6 |
| 20260510132515 | 72 | 275 | 4.0 | 7.0 | 0.00 | 0.00 | 0.00 | 65 | 1008.5 |
| 20260510132015 | 72 | 294 | 4.0 | 8.0 | 0.00 | 0.00 | 0.00 | 66 | 1008.5 |
| 20260510131515 | 72 | 285 | 5.0 | 8.0 | 0.00 | 0.00 | 0.00 | 66 | 1008.5 |
| 20260510131014 | 71 | 273 | 5.0 | 7.0 | 0.00 | 0.00 | 0.00 | 66 | 1008.4 |
| 20260510130514 | 71 | 297 | 4.0 | 7.0 | 0.00 | 0.00 | 0.00 | 67 | 1008.5 |
| 20260510130017 | 71 | 281 | 4.0 | 9.0 | 0.00 | 0.00 | 0.00 | 67 | 1008.3 |
| 20260510125512 | 71 | 278 | 5.0 | 9.0 | 0.00 | 0.00 | 0.00 | 68 | 1008.3 |
| 20260510125012 | 69 | 279 | 5.0 | 6.0 | 0.00 | 0.00 | 0.00 | 69 | 1008.3 |
| 20260510123543 | 69 | 272 | 5.0 | 6.0 | 0.00 | 0.00 | 0.00 | 69 | 1008.1 |
| 20260510123043 | 69 | 281 | 4.0 | 7.0 | 0.00 | 0.00 | 0.00 | 70 | 1008.1 |
| 20260510122544 | 69 | 262 | 4.0 | 7.0 | 0.00 | 0.00 | 0.00 | 70 | 1007.9 |
| 20260510122041 | 69 | 309 | 4.0 | 7.0 | 0.00 | 0.00 | 0.00 | 69 | 1007.9 |
| 20260510121541 | 69 | 287 | 5.0 | 8.0 | 0.00 | 0.00 | 0.00 | 70 | 1007.9 |
| 20260510121040 | 69 | 276 | 3.0 | 8.0 | 0.00 | 0.00 | 0.00 | 69 | 1007.8 |
| 20260510120538 | 69 | 279 | 3.0 | 7.0 | 0.00 | 0.00 | 0.00 | 69 | 1007.9 |
| 20260510120038 | 69 | 266 | 6.0 | 7.0 | 0.00 | 0.00 | 0.00 | 69 | 1007.5 |
| 20260510115537 | 69 | 275 | 1.0 | 5.0 | 0.00 | 0.00 | 0.00 | 68 | 1007.4 |
| 20260510115036 | 70 | 5.0 | 0.0 | 0.00 | 0.00 | 0.00 | 68 | 1007.3 | |
| 20260510113519 | 70 | 276 | 5.0 | 7.0 | 0.00 | 0.00 | 0.00 | 68 | 1007.1 |
| 20260510113027 | 70 | 272 | 4.0 | 7.0 | 0.00 | 0.00 | 0.00 | 68 | 1007.1 |
| 20260510112527 | 70 | 276 | 4.0 | 7.0 | 0.00 | 0.00 | 0.00 | 68 | 1007.0 |
| 20260510112020 | 70 | 268 | 6.0 | 8.0 | 0.00 | 0.00 | 0.00 | 68 | 1007.1 |
| 20260510111523 | 70 | 276 | 4.0 | 6.0 | 0.00 | 0.00 | 0.00 | 68 | 1007.0 |
| 20260510111016 | 70 | 286 | 3.0 | 6.0 | 0.00 | 0.00 | 0.00 | 68 | 1006.9 |
| 20260510110516 | 70 | 274 | 3.0 | 5.0 | 0.00 | 0.00 | 0.00 | 68 | 1007.0 |
| 20260510110014 | 70 | 286 | 3.0 | 6.0 | 0.00 | 0.00 | 0.00 | 68 | 1006.9 |
| 20260510105514 | 71 | 283 | 4.0 | 6.0 | 0.00 | 0.00 | 0.00 | 68 | 1006.8 |
| 20260510105021 | 72 | 4.0 | 0.0 | 0.00 | 0.00 | 0.00 | 66 | 1006.8 | |
| 20260510103521 | 72 | 258 | 3.0 | 6.0 | 0.00 | 0.00 | 0.00 | 67 | 1006.7 |
| 20260510103024 | 72 | 256 | 1.0 | 5.0 | 0.00 | 0.00 | 0.00 | 66 | 1006.6 |
| 20260510102520 | 72 | 280 | 0.0 | 0.0 | 0.00 | 0.00 | 0.00 | 66 | 1006.5 |
| 20260510102019 | 72 | 294 | 0.0 | 0.0 | 0.00 | 0.00 | 0.00 | 66 | 1006.6 |
| 20260510101520 | 72 | 357 | 0.0 | 0.0 | 0.00 | 0.00 | 0.00 | 66 | 1006.5 |
| 20260510101019 | 72 | 2 | 0.0 | 0.0 | 0.00 | 0.00 | 0.00 | 65 | 1006.6 |
| 20260510100523 | 72 | 2 | 0.0 | 0.0 | 0.00 | 0.00 | 0.00 | 65 | 1006.6 |
| 20260510100016 | 72 | 316 | 0.0 | 0.0 | 0.00 | 0.00 | 0.00 | 65 | 1006.6 |
| 20260510095516 | 72 | 316 | 0.0 | 0.0 | 0.00 | 0.00 | 0.00 | 65 | 1006.6 |
| 20260510095014 | 73 | 0.0 | 0.0 | 0.00 | 0.00 | 0.00 | 64 | 1006.5 | |
| 20260510093521 | 73 | 316 | 0.0 | 0.0 | 0.00 | 0.00 | 0.00 | 64 | 1006.3 |
| 20260510093020 | 73 | 316 | 0.0 | 0.0 | 0.00 | 0.00 | 0.00 | 64 | 1006.3 |
| 20260510092520 | 73 | 316 | 0.0 | 0.0 | 0.00 | 0.00 | 0.00 | 64 | 1006.4 |
| 20260510092020 | 73 | 316 | 0.0 | 0.0 | 0.00 | 0.00 | 0.00 | 63 | 1006.3 |
| 20260510091540 | 74 | 316 | 0.0 | 0.0 | 0.00 | 0.00 | 0.00 | 63 | 1006.2 |
| 20260510091019 | 74 | 316 | 0.0 | 0.0 | 0.00 | 0.00 | 0.00 | 63 | 1006.0 |
| 20260510090518 | 74 | 316 | 0.0 | 0.0 | 0.00 | 0.00 | 0.00 | 63 | 1006.0 |
| 20260510090018 | 74 | 316 | 0.0 | 0.0 | 0.00 | 0.00 | 0.00 | 63 | 1006.1 |
| 20260510085518 | 74 | 315 | 0.0 | 0.0 | 0.00 | 0.00 | 0.00 | 63 | 1006.1 |
| 20260510085016 | 74 | 0.0 | 0.0 | 0.00 | 0.00 | 0.00 | 62 | 1006.1 | |
| 20260510084616 | 74 | 316 | 0.0 | 0.0 | 0.00 | 0.00 | 0.00 | 62 | 1006.2 |
| 20260510083041 | 74 | 316 | 0.0 | 0.0 | 0.00 | 0.00 | 0.00 | 62 | 1006.3 |
| 20260510082540 | 74 | 316 | 0.0 | 0.0 | 0.00 | 0.00 | 0.00 | 62 | 1006.2 |
| 20260510082040 | 74 | 316 | 0.0 | 0.0 | 0.00 | 0.00 | 0.00 | 62 | 1006.3 |
| 20260510081544 | 74 | 316 | 0.0 | 0.0 | 0.00 | 0.00 | 0.00 | 62 | 1006.3 |
| 20260510081039 | 74 | 321 | 0.0 | 0.0 | 0.00 | 0.00 | 0.00 | 62 | 1006.3 |
| 20260510080538 | 75 | 360 | 0.0 | 0.0 | 0.00 | 0.00 | 0.00 | 62 | 1006.3 |
| 20260510080040 | 75 | 360 | 0.0 | 0.0 | 0.00 | 0.00 | 0.00 | 61 | 1006.4 |
| 20260510075536 | 75 | 360 | 0.0 | 0.0 | 0.00 | 0.00 | 0.00 | 61 | 1006.4 |
| 20260510075036 | 75 | 0.0 | 0.0 | 0.00 | 0.00 | 0.00 | 60 | 1006.4 | |
| 20260510073040 | 75 | 356 | 0.0 | 0.0 | 0.00 | 0.00 | 0.00 | 60 | 1006.6 |
| 20260510072535 | 76 | 356 | 0.0 | 0.0 | 0.00 | 0.00 | 0.00 | 60 | 1006.6 |
| 20260510072036 | 76 | 355 | 0.0 | 0.0 | 0.00 | 0.00 | 0.00 | 60 | 1006.7 |
| 20260510071539 | 76 | 328 | 0.0 | 0.0 | 0.00 | 0.00 | 0.00 | 60 | 1006.7 |
| 20260510071033 | 76 | 324 | 0.0 | 2.0 | 0.00 | 0.00 | 0.00 | 59 | 1006.7 |
| 20260510070533 | 76 | 324 | 1.0 | 6.0 | 0.00 | 0.00 | 0.00 | 59 | 1006.8 |
| 20260510070043 | 76 | 10 | 1.0 | 6.0 | 0.00 | 0.00 | 0.00 | 59 | 1006.7 |
| 20260510065531 | 76 | 18 | 3.0 | 5.0 | 0.00 | 0.00 | 0.00 | 58 | 1006.8 |
| 20260510065029 | 77 | 0.0 | 0.0 | 0.00 | 0.00 | 0.00 | 56 | 1006.8 | |
| 20260510064628 | 77 | 39 | 3.0 | 5.0 | 0.00 | 0.00 | 0.00 | 56 | 1006.9 |
| 20260510063517 | 77 | 39 | 3.0 | 5.0 | 0.00 | 0.00 | 0.00 | 56 | 1006.9 |
| 20260510063020 | 78 | 27 | 3.0 | 4.0 | 0.00 | 0.00 | 0.00 | 56 | 1007.0 |
| 20260510062516 | 78 | 66 | 0.0 | 0.0 | 0.00 | 0.00 | 0.00 | 55 | 1007.1 |
| 20260510062015 | 79 | 66 | 0.0 | 0.0 | 0.00 | 0.00 | 0.00 | 55 | 1007.2 |
| 20260510061524 | 79 | 66 | 0.0 | 0.0 | 0.00 | 0.00 | 0.00 | 55 | 1007.2 |
| 20260510061012 | 79 | 84 | 0.0 | 3.0 | 0.00 | 0.00 | 0.00 | 54 | 1007.2 |
| 20260510060512 | 79 | 118 | 0.0 | 3.0 | 0.00 | 0.00 | 0.00 | 54 | 1007.3 |
| 20260510060025 | 79 | 110 | 1.0 | 4.0 | 0.00 | 0.00 | 0.00 | 54 | 1007.3 |
| 20260510055510 | 79 | 114 | 2.0 | 4.0 | 0.00 | 0.00 | 0.00 | 54 | 1007.3 |
| 20260510055008 | 79 | 105 | 5.0 | 6.0 | 0.00 | 0.00 | 0.00 | 53 | 1007.4 |
| 20260510054608 | 80 | 115 | 4.0 | 9.0 | 0.00 | 0.00 | 0.00 | 53 | 1007.4 |
| 20260510053029 | 80 | 108 | 5.0 | 8.0 | 0.00 | 0.00 | 0.00 | 53 | 1007.4 |
| 20260510052529 | 80 | 109 | 3.0 | 7.0 | 0.00 | 0.00 | 0.00 | 52 | 1007.6 |
| 20260510052028 | 80 | 144 | 1.0 | 5.0 | 0.00 | 0.00 | 0.00 | 51 | 1007.6 |
| 20260510051528 | 80 | 144 | 3.0 | 7.0 | 0.00 | 0.00 | 0.00 | 50 | 1007.7 |
| 20260510051026 | 80 | 148 | 3.0 | 6.0 | 0.00 | 0.00 | 0.00 | 50 | 1007.7 |
| 20260510050525 | 80 | 169 | 3.0 | 5.0 | 0.00 | 0.00 | 0.00 | 50 | 1007.7 |
| 20260510050026 | 81 | 152 | 2.0 | 9.0 | 0.00 | 0.00 | 0.00 | 50 | 1007.6 |
| 20260510045526 | 81 | 109 | 5.0 | 9.0 | 0.00 | 0.00 | 0.00 | 50 | 1007.5 |
| 20260510045025 | 81 | 0.0 | 0.0 | 0.00 | 0.00 | 0.00 | 49 | 1007.5 | |
| 20260510044625 | 81 | 149 | 5.0 | 9.0 | 0.00 | 0.00 | 0.00 | 49 | 1007.5 |
| 20260510043058 | 81 | 123 | 4.0 | 8.0 | 0.00 | 0.00 | 0.00 | 48 | 1007.7 |
| 20260510042557 | 81 | 132 | 3.0 | 5.0 | 0.00 | 0.00 | 0.00 | 48 | 1007.7 |
| 20260510042059 | 81 | 139 | 3.0 | 6.0 | 0.00 | 0.00 | 0.00 | 47 | 1007.7 |
| 20260510041610 | 81 | 144 | 3.0 | 6.0 | 0.00 | 0.00 | 0.00 | 47 | 1007.7 |
| 20260510041057 | 81 | 144 | 2.0 | 6.0 | 0.00 | 0.00 | 0.00 | 46 | 1007.6 |
| 20260510040601 | 82 | 143 | 4.0 | 6.0 | 0.00 | 0.00 | 0.00 | 46 | 1007.6 |
| 20260510040057 | 82 | 141 | 3.0 | 6.0 | 0.00 | 0.00 | 0.00 | 45 | 1007.5 |
| 20260510035557 | 82 | 137 | 3.0 | 6.0 | 0.00 | 0.00 | 0.00 | 45 | 1007.6 |
| 20260510035057 | 82 | 149 | 5.0 | 6.0 | 0.00 | 0.00 | 0.00 | 45 | 1007.6 |
| 20260510034656 | 82 | 151 | 3.0 | 5.0 | 0.00 | 0.00 | 0.00 | 43 | 1007.6 |
| 20260510033050 | 82 | 163 | 2.0 | 6.0 | 0.00 | 0.00 | 0.00 | 42 | 1007.3 |
| 20260510032549 | 83 | 155 | 4.0 | 9.0 | 0.00 | 0.00 | 0.00 | 41 | 1007.4 |
| 20260510032049 | 83 | 154 | 5.0 | 9.0 | 0.00 | 0.00 | 0.00 | 40 | 1007.1 |
| 20260510031557 | 83 | 133 | 6.0 | 9.0 | 0.00 | 0.00 | 0.00 | 40 | 1007.1 |
| 20260510031049 | 83 | 134 | 5.0 | 9.0 | 0.00 | 0.00 | 0.00 | 39 | 1007.0 |
| 20260510030549 | 83 | 125 | 5.0 | 10.0 | 0.00 | 0.00 | 0.00 | 38 | 1006.9 |
| 20260510030056 | 84 | 139 | 5.0 | 10.0 | 0.00 | 0.00 | 0.00 | 37 | 1006.9 |
| 20260510025549 | 84 | 140 | 5.0 | 7.0 | 0.00 | 0.00 | 0.00 | 36 | 1006.8 |
| 20260510025053 | 86 | 0.0 | 0.0 | 0.00 | 0.00 | 0.00 | 30 | 1006.8 | |
| 20260510023013 | 86 | 152 | 4.0 | 8.0 | 0.00 | 0.00 | 0.00 | 29 | 1006.6 |
| 20260510022513 | 87 | 148 | 4.0 | 6.0 | 0.00 | 0.00 | 0.00 | 29 | 1006.5 |
| 20260510022012 | 88 | 162 | 4.0 | 5.0 | 0.00 | 0.00 | 0.00 | 28 | 1006.3 |
| 20260510021514 | 88 | 146 | 2.0 | 8.0 | 0.00 | 0.00 | 0.00 | 27 | 1006.2 |
| 20260510021012 | 89 | 150 | 3.0 | 8.0 | 0.00 | 0.00 | 0.00 | 27 | 1006.3 |
| 20260510020513 | 89 | 117 | 3.0 | 8.0 | 0.00 | 0.00 | 0.00 | 27 | 1006.0 |
| 20260510020012 | 89 | 83 | 4.0 | 8.0 | 0.00 | 0.00 | 0.00 | 26 | 1006.0 |
| 20260510015516 | 90 | 114 | 5.0 | 9.0 | 0.00 | 0.00 | 0.00 | 26 | 1005.9 |
| 20260510015111 | 90 | 124 | 5.0 | 9.0 | 0.00 | 0.00 | 0.00 | 25 | 1005.9 |
| 20260510013029 | 91 | 125 | 4.0 | 9.0 | 0.00 | 0.00 | 0.00 | 24 | 1005.5 |
| 20260510012531 | 91 | 122 | 5.0 | 11.0 | 0.00 | 0.00 | 0.00 | 24 | 1005.4 |
| 20260510012030 | 91 | 95 | 7.0 | 11.0 | 0.00 | 0.00 | 0.00 | 24 | 1005.5 |
| 20260510011528 | 92 | 90 | 6.0 | 11.0 | 0.00 | 0.00 | 0.00 | 24 | 1005.4 |
| 20260510011028 | 92 | 148 | 5.0 | 11.0 | 0.00 | 0.00 | 0.00 | 23 | 1005.4 |
| 20260510010529 | 92 | 121 | 5.0 | 11.0 | 0.00 | 0.00 | 0.00 | 23 | 1005.5 |
| 20260510010029 | 92 | 56 | 3.0 | 11.0 | 0.00 | 0.00 | 0.00 | 22 | 1005.4 |
| 20260510005529 | 92 | 75 | 6.0 | 11.0 | 0.00 | 0.00 | 0.00 | 22 | 1005.4 |
| 20260510005027 | 93 | 0.0 | 0.0 | 0.00 | 0.00 | 0.00 | 21 | 1005.4 | |
| 20260510003012 | 93 | 110 | 7.0 | 11.0 | 0.00 | 0.00 | 0.00 | 21 | 1005.2 |
| 20260510002612 | 93 | 119 | 8.0 | 11.0 | 0.00 | 0.00 | 0.00 | 20 | 1005.1 |
| 20260510002010 | 94 | 158 | 6.0 | 10.0 | 0.00 | 0.00 | 0.00 | 20 | 1005.2 |
| 20260510001510 | 94 | 108 | 1.0 | 10.0 | 0.00 | 0.00 | 0.00 | 20 | 1005.1 |
| 20260510001008 | 94 | 133 | 5.0 | 9.0 | 0.00 | 0.00 | 0.00 | 20 | 1005.1 |
| 20260510000508 | 94 | 119 | 1.0 | 8.0 | 0.00 | 0.00 | 0.00 | 19 | 1005.1 |
| 20260510000008 | 94 | 137 | 3.0 | 8.0 | 0.00 | 0.00 | 0.00 | 19 | 1005.2 |
| 20260509235507 | 94 | 160 | 3.0 | 9.0 | 0.00 | 0.00 | 0.00 | 18 | 1005.1 |
| 20260509235106 | 94 | 131 | 5.0 | 7.0 | 0.00 | 0.00 | 0.00 | 19 | 1005.3 |
| 20260509233503 | 95 | 138 | 6.0 | 9.0 | 0.00 | 0.00 | 0.00 | 19 | 1005.1 |
| 20260509233007 | 95 | 59 | 3.0 | 9.0 | 0.00 | 0.00 | 0.00 | 20 | 1005.0 |
| 20260509232503 | 95 | 100 | 5.0 | 10.0 | 0.00 | 0.00 | 0.00 | 19 | 1005.1 |
| 20260509232002 | 95 | 45 | 3.0 | 10.0 | 0.00 | 0.00 | 0.00 | 20 | 1005.2 |
| 20260509231501 | 95 | 169 | 4.0 | 10.0 | 0.00 | 0.00 | 0.00 | 19 | 1005.4 |
| 20260509231100 | 95 | 193 | 4.0 | 11.0 | 0.00 | 0.00 | 0.00 | 18 | 1005.3 |
| 20260509230600 | 95 | 125 | 6.0 | 11.0 | 0.00 | 0.00 | 0.00 | 20 | 1005.3 |
| 20260509230509 | 95 | 145 | 7.0 | 11.0 | 0.00 | 0.00 | 0.00 | 20 | 1005.3 |
| 20260509230105 | 95 | 105 | 6.0 | 10.0 | 0.00 | 0.00 | 0.00 | 20 | 1005.2 |
| 20260509225557 | 95 | 129 | 4.0 | 10.0 | 0.00 | 0.00 | 0.00 | 20 | 1005.3 |
| 20260509225057 | 95 | 111 | 3.0 | 11.0 | 0.00 | 0.00 | 0.00 | 19 | 1005.4 |
| 20260509224557 | 95 | 127 | 5.0 | 13.0 | 0.00 | 0.00 | 0.00 | 18 | 1005.5 |
| 20260509224055 | 95 | 144 | 9.0 | 13.0 | 0.00 | 0.00 | 0.00 | 20 | 1005.5 |
| 20260509223552 | 95 | 193 | 5.0 | 10.0 | 0.00 | 0.00 | 0.00 | 20 | 1005.5 |
| 20260509223155 | 95 | 148 | 3.0 | 11.0 | 0.00 | 0.00 | 0.00 | 22 | 1005.5 |
| 20260509222552 | 95 | 137 | 7.0 | 11.0 | 0.00 | 0.00 | 0.00 | 22 | 1005.7 |
| 20260509222048 | 95 | 140 | 5.0 | 11.0 | 0.00 | 0.00 | 0.00 | 22 | 1005.6 |
| 20260509221546 | 95 | 123 | 7.0 | 11.0 | 0.00 | 0.00 | 0.00 | 23 | 1005.6 |
| 20260509220058 | 95 | 132 | 6.0 | 11.0 | 0.00 | 0.00 | 0.00 | 24 | 1005.9 |
| 20260509215558 | 95 | 100 | 5.0 | 11.0 | 0.00 | 0.00 | 0.00 | 23 | 1005.9 |
| 20260509215057 | 95 | 79 | 8.0 | 11.0 | 0.00 | 0.00 | 0.00 | 24 | 1005.8 |
| 20260509214556 | 95 | 143 | 3.0 | 8.0 | 0.00 | 0.00 | 0.00 | 24 | 1005.8 |
| 20260509214054 | 94 | 245 | 0.0 | 9.0 | 0.00 | 0.00 | 0.00 | 21 | 1005.8 |
| 20260509213554 | 94 | 104 | 4.0 | 13.0 | 0.00 | 0.00 | 0.00 | 20 | 1005.9 |
| 20260509213053 | 95 | 116 | 8.0 | 13.0 | 0.00 | 0.00 | 0.00 | 22 | 1006.0 |
| 20260509212551 | 94 | 127 | 4.0 | 10.0 | 0.00 | 0.00 | 0.00 | 24 | 1006.1 |
| 20260509212050 | 94 | 118 | 3.0 | 10.0 | 0.00 | 0.00 | 0.00 | 27 | 1006.1 |
| 20260509211552 | 93 | 130 | 3.0 | 12.0 | 0.00 | 0.00 | 0.00 | 30 | 1006.1 |
| 20260509210034 | 93 | 117 | 3.0 | 12.0 | 0.00 | 0.00 | 0.00 | 30 | 1006.5 |
| 20260509205530 | 93 | 54 | 4.0 | 11.0 | 0.00 | 0.00 | 0.00 | 29 | 1006.7 |
| 20260509205031 | 93 | 76 | 3.0 | 9.0 | 0.00 | 0.00 | 0.00 | 30 | 1006.7 |
| 20260509204533 | 93 | 77 | 4.0 | 11.0 | 0.00 | 0.00 | 0.00 | 30 | 1006.7 |
| 20260509204032 | 92 | 113 | 4.0 | 9.0 | 0.00 | 0.00 | 0.00 | 33 | 1006.7 |
| 20260509203526 | 92 | 129 | 4.0 | 9.0 | 0.00 | 0.00 | 0.00 | 34 | 1006.8 |
| 20260509203034 | 91 | 47 | 2.0 | 11.0 | 0.00 | 0.00 | 0.00 | 33 | 1006.9 |
| 20260509202524 | 91 | 122 | 6.0 | 11.0 | 0.00 | 0.00 | 0.00 | 35 | 1006.8 |
| 20260509202023 | 91 | 100 | 5.0 | 11.0 | 0.00 | 0.00 | 0.00 | 34 | 1007.0 |
| 20260509201522 | 90 | 144 | 5.0 | 11.0 | 0.00 | 0.00 | 0.00 | 38 | 1007.0 |
| 20260509200039 | 90 | 126 | 6.0 | 11.0 | 0.00 | 0.00 | 0.00 | 38 | 1007.3 |
| 20260509195541 | 90 | 95 | 4.0 | 9.0 | 0.00 | 0.00 | 0.00 | 39 | 1007.5 |
| 20260509195037 | 90 | 66 | 3.0 | 10.0 | 0.00 | 0.00 | 0.00 | 40 | 1007.5 |
| 20260509194535 | 89 | 136 | 1.0 | 10.0 | 0.00 | 0.00 | 0.00 | 41 | 1007.5 |
| 20260509194034 | 89 | 121 | 3.0 | 8.0 | 0.00 | 0.00 | 0.00 | 43 | 1007.5 |
| 20260509193534 | 88 | 95 | 2.0 | 11.0 | 0.00 | 0.00 | 0.00 | 43 | 1007.6 |
| 20260509193034 | 88 | 81 | 6.0 | 11.0 | 0.00 | 0.00 | 0.00 | 46 | 1007.6 |
| 20260509192531 | 88 | 119 | 4.0 | 12.0 | 0.00 | 0.00 | 0.00 | 47 | 1007.7 |
| 20260509192030 | 87 | 152 | 5.0 | 12.0 | 0.00 | 0.00 | 0.00 | 47 | 1007.8 |
| 20260509191529 | 87 | 90 | 7.0 | 10.0 | 0.00 | 0.00 | 0.00 | 49 | 1007.9 |
| 20260509190107 | 86 | 112 | 6.0 | 9.0 | 0.00 | 0.00 | 0.00 | 51 | 1008.3 |
| 20260509185550 | 86 | 148 | 3.0 | 8.0 | 0.00 | 0.00 | 0.00 | 51 | 1008.3 |
| 20260509185049 | 85 | 27 | 4.0 | 8.0 | 0.00 | 0.00 | 0.00 | 52 | 1008.4 |
| 20260509184555 | 85 | 95 | 4.0 | 9.0 | 0.00 | 0.00 | 0.00 | 53 | 1008.5 |
| 20260509184048 | 85 | 95 | 6.0 | 9.0 | 0.00 | 0.00 | 0.00 | 53 | 1008.8 |
| 20260509183548 | 84 | 100 | 0.0 | 11.0 | 0.00 | 0.00 | 0.00 | 56 | 1008.8 |
| 20260509183048 | 84 | 104 | 6.0 | 11.0 | 0.00 | 0.00 | 0.00 | 56 | 1009.2 |
| 20260509182547 | 84 | 20 | 4.0 | 10.0 | 0.00 | 0.00 | 0.00 | 56 | 1009.3 |
| 20260509182046 | 84 | 100 | 4.0 | 8.0 | 0.00 | 0.00 | 0.00 | 56 | 1009.2 |
| 20260509181546 | 83 | 151 | 4.0 | 11.0 | 0.00 | 0.00 | 0.00 | 57 | 1009.3 |
| 20260509180100 | 83 | 144 | 3.0 | 11.0 | 0.00 | 0.00 | 0.00 | 57 | 1009.5 |
| 20260509175549 | 82 | 159 | 3.0 | 9.0 | 0.00 | 0.00 | 0.00 | 59 | 1009.5 |
| 20260509175048 | 81 | 156 | 3.0 | 9.0 | 0.00 | 0.00 | 0.00 | 60 | 1009.7 |
| 20260509174551 | 81 | 78 | 4.0 | 9.0 | 0.00 | 0.00 | 0.00 | 60 | 1009.8 |
| 20260509174046 | 81 | 125 | 0.0 | 9.0 | 0.00 | 0.00 | 0.00 | 61 | 1009.9 |
| 20260509173546 | 80 | 129 | 3.0 | 11.0 | 0.00 | 0.00 | 0.00 | 62 | 1009.9 |
| 20260509173056 | 80 | 90 | 4.0 | 10.0 | 0.00 | 0.00 | 0.00 | 62 | 1009.9 |
| 20260509172545 | 80 | 108 | 6.0 | 10.0 | 0.00 | 0.00 | 0.00 | 62 | 1010.0 |
| 20260509172043 | 79 | 151 | 3.0 | 10.0 | 0.00 | 0.00 | 0.00 | 64 | 1010.0 |
| 20260509171548 | 79 | 112 | 6.0 | 10.0 | 0.00 | 0.00 | 0.00 | 64 | 1010.2 |
| 20260509170019 | 79 | 131 | 6.0 | 10.0 | 0.00 | 0.00 | 0.00 | 64 | 1010.3 |
| 20260509165517 | 79 | 131 | 1.0 | 8.0 | 0.00 | 0.00 | 0.00 | 65 | 1010.3 |
| 20260509165017 | 78 | 171 | 3.0 | 9.0 | 0.00 | 0.00 | 0.00 | 65 | 1010.3 |
| 20260509164517 | 78 | 124 | 6.0 | 10.0 | 0.00 | 0.00 | 0.00 | 65 | 1010.4 |
| 20260509164016 | 78 | 164 | 2.0 | 9.0 | 0.00 | 0.00 | 0.00 | 67 | 1010.4 |
| 20260509163514 | 77 | 154 | 3.0 | 11.0 | 0.00 | 0.00 | 0.00 | 68 | 1010.4 |
| 20260509163022 | 77 | 116 | 5.0 | 12.0 | 0.00 | 0.00 | 0.00 | 69 | 1010.4 |
| 20260509162515 | 77 | 174 | 7.0 | 10.0 | 0.00 | 0.00 | 0.00 | 69 | 1010.5 |
| 20260509162012 | 76 | 260 | 1.0 | 9.0 | 0.00 | 0.00 | 0.00 | 70 | 1010.4 |
| 20260509161517 | 74 | 75 | 3.0 | 8.0 | 0.00 | 0.00 | 0.00 | 74 | 1010.5 |
| 20260509160039 | 74 | 75 | 3.0 | 8.0 | 0.00 | 0.00 | 0.00 | 74 | 1010.8 |
| 20260509155541 | 74 | 76 | 3.0 | 9.0 | 0.00 | 0.00 | 0.00 | 74 | 1010.8 |
| 20260509155040 | 74 | 131 | 0.0 | 9.0 | 0.00 | 0.00 | 0.00 | 75 | 1010.9 |
| 20260509154540 | 73 | 128 | 4.0 | 9.0 | 0.00 | 0.00 | 0.00 | 76 | 1010.7 |
| 20260509154036 | 73 | 156 | 4.0 | 9.0 | 0.00 | 0.00 | 0.00 | 76 | 1010.8 |
| 20260509153535 | 73 | 81 | 3.0 | 6.0 | 0.00 | 0.00 | 0.00 | 77 | 1010.9 |